Regional Weather Roundup
Issued by NWS

Home | Current Version | Previous Version | Graphics & Text | Print | Product List | Glossary On
Versions: 1 2 3 4 5 6 7 8 9 10 11 12 13 14 15 16 17 18 19 20 21 22 23 24 25 26 27 28 29 30 31 32 33 34 35 36 37 38 39 40 41 42 43 44 45 46 47 48 49 50
000
ASUS43 KLSX 052107
RWRMO

WEATHER SUMMARY FOR MISSOURI
NATIONAL WEATHER SERVICE SPRINGFIELD MO
400 PM CDT SUN JUL 05 2015

NOTE: "FAIR" INDICATES FEW OR NO CLOUDS BELOW 12,000 FEET WITH NO
       SIGNIFICANT WEATHER AND/OR OBSTRUCTIONS TO VISIBILITY.
       CURRENT SKY AND/OR WEATHER CONDITIONS ARE NOT AVAILABLE FOR
       CHILLICOTHE AND FARMINGTON.

MOZ001>031-035>038-043-044-053-054-052200-
...NORTHERN AND WESTERN MISSOURI...

CITY           SKY/WX    TMP DP  RH WIND       PRES   REMARKS
KANSAS CTY INT PTSUNNY   87  75  67 S15       29.93S HX  96
KANSAS C DTWN  PTSUNNY   89  75  63 S9G18     29.91F HX  99
LEE`S SUMMIT   MOSUNNY   87  74  64 S13G18    29.94F HX  95
ST JOSEPH      MOSUNNY   88  74  63 SE13      29.90F HX  96
CHILLICOTHE      N/A     89  71  55 S10       29.94F HX  95
KIRKSVILLE     PTSUNNY   83  68  60 S9        29.99F

$$
MOZ066>068-077>081-088>096-101>105-052200-
...SOUTHWEST MISSOURI...

CITY           SKY/WX    TMP DP  RH WIND       PRES   REMARKS
SPRINGFIELD    MOSUNNY   86  73  65 S10       29.99F HX  93
JOPLIN         MOSUNNY   89  75  63 S8        29.96F HX  99

$$
MOZ032>034-039>042-045>050-055>058-069>072-052200-
...CENTRAL MISSOURI...

CITY           SKY/WX    TMP DP  RH WIND       PRES   REMARKS
COLUMBIA       PTSUNNY   85  70  60 S9        30.00F
JEFFERSON CITY PTSUNNY   85  68  56 S8        29.99F
ROLLA          MOSUNNY   84  70  62 SE8       30.02F
SEDALIA        MOSUNNY   88  74  63 SE8       29.98F HX  96
WHITEMAN AFB   MOSUNNY   88  75  65 S8        29.95F HX  97
WARRENSBURG    MOSUNNY   88  72  58 SE13      29.95S HX  94
OSAGE BEACH    PTSUNNY   86  72  62 SE8       30.01S HX  92

$$
MOZ051-052-059>065-052200-
...EAST CENTRAL MISSOURI...

CITY           SKY/WX    TMP DP  RH WIND       PRES   REMARKS
ST LOUIS INTL  MOSUNNY   89  64  43 S10       30.03F HX  90
SPIRIT OF STL  MOSUNNY   86  66  51 S7        30.01F
ST CHARLES     SUNNY     86  69  56 SE7       30.01F HX  90

$$
MOZ072>076-082>087-097>100-106>115-052200-
...SOUTH CENTRAL AND SOUTHEAST MISSOURI...

CITY           SKY/WX    TMP DP  RH WIND       PRES   REMARKS
CAPE GIRARDEAU MOSUNNY   84  68  58 E5        30.04F HAZE
FARMINGTON     SUNNY     82  66  57 S8        30.09F
POPLAR BLUFF   MOSUNNY   84  72  67 SE6       30.01F
WEST PLAINS    PTSUNNY   83  69  62 SE6       30.06F

$$



USA.gov is the U.S. government's official web portal to all federal, state and local government web resources and services.